Princeton, MN

8:20 PM CDT on March 23, 2017 (GMT -0500)
Princeton Municipal

Weather History for KPNM - August, 2014

Change the Weather History Date:

Friday, August 22, 2014

  Actual Average Record
Temperature  
Mean Temperature 72 °F -  
Max Temperature 77 °F 76 °F 86 °F (2001)
Min Temperature 66 °F 55 °F 44 °F (2005)
Cooling Degree Days 6    
Growing Degree Days 22 (Base 50)    
Moisture  
Dew Point 67 °F    
Average Humidity 88    
Maximum Humidity 100    
Minimum Humidity 78    
Precipitation  
Precipitation 0.00 in - - ()
Sea Level Pressure  
Sea Level Pressure 29.96 in    
Wind  
Wind Speed 3 mph (North)    
Max Wind Speed 8 mph    
Max Gust Speed -    
Visibility 8 miles    
Events Fog    
Averages and records for this station are not official NWS values.
T = Trace of Precipitation, MM = Missing Value Source: NWS Daily Summary

Daily Weather History Graph

Daily Weather History Graph

Search for Another Location

Airport or City:

Trip Planner

Search our weather history database for the weather conditions in past years. The results will help you decide how hot, cold, wet, or windy it might be!

Date:

Astronomy

Aug. 22, 2014 Rise Set
Actual Time 6:23 AM CDT 8:10 PM CDT
Civil Twilight 5:51 AM CDT 8:41 PM CDT
Nautical Twilight 5:13 AM CDT 9:20 PM CDT
Astronomical Twilight 4:31 AM CDT 10:01 PM CDT
Moon 3:43 AM CDT (8/22) 6:21 PM CDT (8/22)
Length of Visible Light 14h 49m
Length of Day
13h 46m
Waning Crescent, 7% of the Moon is Illuminated
Aug 22
Waning Crescent
Aug 25
New
Sep 2
First Quarter
Sep 8
Full
Sep 15
Last Quarter

Hourly Weather History & Observations

Time (CDT) Temp. Dew Point Humidity Pressure Visibility Wind Dir Wind Speed Gust Speed Precip Events Conditions
12:14 AM 71.6 °F 69.8 °F 94% 29.88 in 10.0 mi NNW 4.6 mph - N/A   Overcast
12:34 AM 71.6 °F 69.8 °F 94% 29.88 in 10.0 mi NNE 3.5 mph - N/A   Overcast
12:54 AM 71.6 °F 69.8 °F 94% 29.88 in 7.0 mi North 3.5 mph - N/A   Overcast
1:34 AM 69.8 °F 68.0 °F 94% 29.88 in 4.0 mi Calm Calm - N/A   Overcast
1:54 AM 69.8 °F 68.0 °F 94% 29.87 in 2.5 mi North 5.8 mph - N/A   Overcast
2:14 AM 69.8 °F 66.2 °F 88% 29.87 in 5.0 mi North 3.5 mph - N/A   Overcast
2:34 AM 68.0 °F 66.2 °F 94% 29.87 in 7.0 mi North 4.6 mph - N/A   Overcast
2:54 AM 68.0 °F 66.2 °F 94% 29.88 in 7.0 mi North 3.5 mph - N/A   Overcast
3:14 AM 68.0 °F 66.2 °F 94% 29.88 in 7.0 mi North 3.5 mph - N/A   Overcast
3:34 AM 68.0 °F 66.2 °F 94% 29.89 in 5.0 mi North 3.5 mph - N/A   Overcast
3:54 AM 68.0 °F 66.2 °F 94% 29.90 in 3.0 mi North 5.8 mph - N/A   Overcast
4:14 AM 66.2 °F 66.2 °F 100% 29.90 in 1.8 mi North 5.8 mph - N/A   Overcast
4:34 AM 66.2 °F 66.2 °F 100% 29.90 in 4.0 mi Calm Calm - N/A   Overcast
4:54 AM 66.2 °F 66.2 °F 100% 29.91 in 5.0 mi Calm Calm - N/A   Overcast
5:14 AM 66.2 °F 66.2 °F 100% 29.91 in 5.0 mi NNW 3.5 mph - N/A   Overcast
5:34 AM 66.2 °F 66.2 °F 100% 29.92 in 4.0 mi Calm Calm - N/A   Overcast
5:55 AM 66.2 °F 66.2 °F 100% 29.93 in 3.0 mi North 4.6 mph - N/A   Overcast
6:14 AM 66.2 °F 66.2 °F 100% 29.93 in 2.5 mi NNW 5.8 mph - N/A   Overcast
6:34 AM 66.2 °F 64.4 °F 94% 29.93 in 0.5 mi NNW 3.5 mph - N/A Fog Fog
6:55 AM 66.2 °F 64.4 °F 94% 29.94 in 0.5 mi North 3.5 mph - N/A Fog Fog
7:14 AM 66.2 °F 66.2 °F 100% 29.94 in 0.8 mi NNW 5.8 mph - N/A   Overcast
7:34 AM 66.2 °F 66.2 °F 100% 29.93 in 0.8 mi NNW 4.6 mph - N/A   Overcast
7:54 AM 66.2 °F 66.2 °F 100% 29.94 in 1.2 mi NNW 4.6 mph - N/A   Overcast
8:14 AM 66.2 °F 66.2 °F 100% 29.94 in 1.8 mi North 6.9 mph - N/A   Overcast
8:34 AM 66.2 °F 66.2 °F 100% 29.95 in 3.0 mi NNW 8.1 mph - N/A   Overcast
8:54 AM 68.0 °F 66.2 °F 94% 29.95 in 5.0 mi NNW 6.9 mph - N/A   Overcast
9:15 AM 68.0 °F 66.2 °F 94% 29.95 in 10.0 mi North 3.5 mph - N/A   Overcast
9:34 AM 69.8 °F 66.2 °F 88% 29.95 in 10.0 mi North 5.8 mph - N/A   Overcast
9:54 AM 71.6 °F 66.2 °F 83% 29.97 in 10.0 mi North 5.8 mph - N/A   Overcast
10:15 AM 71.6 °F 66.2 °F 83% 29.97 in 10.0 mi NNW 5.8 mph - N/A   Overcast
10:34 AM 71.6 °F 66.2 °F 83% 29.97 in 10.0 mi North 3.5 mph - N/A   Overcast
10:54 AM 73.4 °F 66.2 °F 78% 29.97 in 10.0 mi North 6.9 mph - N/A   Overcast
11:15 AM 73.4 °F 66.2 °F 78% 29.98 in 10.0 mi NNE 5.8 mph - N/A   Overcast
11:34 AM 73.4 °F 66.2 °F 78% 29.98 in 10.0 mi NNW 5.8 mph - N/A   Overcast
11:54 AM 73.4 °F 66.2 °F 78% 29.98 in 10.0 mi North 4.6 mph - N/A   Overcast
12:15 PM 73.4 °F 68.0 °F 83% 29.98 in 10.0 mi NNW 3.5 mph - N/A   Overcast
12:34 PM 73.4 °F 68.0 °F 83% 29.99 in 10.0 mi North 3.5 mph - N/A   Overcast
12:54 PM 73.4 °F 68.0 °F 83% 29.99 in 10.0 mi NNW 5.8 mph - N/A   Overcast
1:14 PM 75.2 °F 68.0 °F 78% 29.99 in 10.0 mi WNW 3.5 mph - N/A   Overcast
1:34 PM 75.2 °F 68.0 °F 78% 30.00 in 10.0 mi North 3.5 mph - N/A   Overcast
1:54 PM 75.2 °F 68.0 °F 78% 29.99 in 10.0 mi Calm Calm - N/A   Overcast
2:14 PM 75.2 °F 68.0 °F 78% 29.98 in 10.0 mi Calm Calm - N/A   Overcast
2:34 PM 75.2 °F 68.0 °F 78% 29.98 in 10.0 mi North 4.6 mph - N/A   Overcast
2:54 PM 75.2 °F 68.0 °F 78% 29.98 in 10.0 mi NE 3.5 mph - N/A   Overcast
3:14 PM 75.2 °F 68.0 °F 78% 29.98 in 10.0 mi Calm Calm - N/A   Overcast
3:34 PM 75.2 °F 68.0 °F 78% 29.99 in 10.0 mi Calm Calm - N/A   Overcast
3:54 PM 75.2 °F 69.8 °F 83% 29.99 in 10.0 mi Calm Calm - N/A   Overcast
4:14 PM 75.2 °F 68.0 °F 78% 29.99 in 10.0 mi Calm Calm - N/A   Overcast
4:34 PM 75.2 °F 68.0 °F 78% 29.98 in 10.0 mi Calm Calm - N/A   Overcast
4:54 PM 75.2 °F 68.0 °F 78% 29.99 in 10.0 mi Calm Calm - N/A   Overcast
5:14 PM 77.0 °F 69.8 °F 78% 29.99 in 10.0 mi Calm Calm - N/A   Overcast
5:34 PM 75.2 °F 69.8 °F 83% 30.00 in 10.0 mi Calm Calm - N/A   Overcast
5:54 PM 75.2 °F 69.8 °F 83% 30.00 in 10.0 mi NE 4.6 mph - N/A   Overcast
6:14 PM 75.2 °F 69.8 °F 83% 30.00 in 10.0 mi Calm Calm - N/A   Overcast
6:34 PM 75.2 °F 69.8 °F 83% 30.00 in 10.0 mi Calm Calm - N/A   Overcast
6:54 PM 75.2 °F 69.8 °F 83% 30.00 in 10.0 mi NE 3.5 mph - N/A   Overcast
7:14 PM 75.2 °F 69.8 °F 83% 29.99 in 10.0 mi East 3.5 mph - N/A   Mostly Cloudy
7:34 PM 73.4 °F 69.8 °F 88% 30.00 in 10.0 mi Calm Calm - N/A   Scattered Clouds
7:51 PM 73.4 °F 69.8 °F 88% 30.00 in 10.0 mi Calm Calm - N/A   Mostly Cloudy
8:01 PM 73.4 °F 68.0 °F 83% 30.00 in 10.0 mi NE 1.2 mph - N/A   Scattered Clouds
8:21 PM 71.6 °F 68.0 °F 88% 30.01 in 10.0 mi NNE 1.2 mph - N/A   Clear
8:41 PM 69.8 °F 66.2 °F 88% 30.02 in 10.0 mi NE 2.3 mph - N/A   Clear
9:01 PM 69.8 °F 68.0 °F 94% 30.02 in 10.0 mi ENE 1.2 mph - N/A   Clear
9:41 PM 69.8 °F 66.2 °F 88% 30.04 in 10.0 mi Calm Calm - N/A   Overcast
10:01 PM 71.6 °F 69.8 °F 94% 30.04 in 10.0 mi ENE 2.3 mph - N/A   Overcast
10:21 PM 71.6 °F 68.0 °F 88% 30.05 in 10.0 mi East 2.3 mph - N/A   Mostly Cloudy
10:41 PM 71.6 °F 68.0 °F 88% 30.03 in 10.0 mi NE 4.6 mph - N/A   Mostly Cloudy
11:01 PM 69.8 °F 66.2 °F 88% 30.03 in 10.0 mi NE 3.5 mph - N/A   Clear
11:21 PM 69.8 °F 66.2 °F 88% 30.03 in 10.0 mi NE 4.6 mph - N/A   Clear
11:41 PM 69.8 °F 66.2 °F 88% 30.04 in 10.0 mi NE 4.6 mph - N/A   Clear